Weather reports worldwide

Advertisment
Hoyerswerda, Germany (10495): temperature & dewpoint: 18.03.2019 17:00:00 - 24.03.2019 17:00:00 (CET)Hoyerswerda, Germany (10495): temperature 5cm & temperature -5cm: 18.03.2019 17:00:00 - 24.03.2019 17:00:00 (CET)Hoyerswerda, Germany (10495): temperature -20cm & temperature -100cm: 18.03.2019 17:00:00 - 24.03.2019 17:00:00 (CET)Hoyerswerda, Germany (10495): wind speed & gusts: 18.03.2019 17:00:00 - 24.03.2019 17:00:00 (CET)Hoyerswerda, Germany (10495): wind direction: 18.03.2019 17:00:00 - 24.03.2019 17:00:00 (CET)Hoyerswerda, Germany (10495): reduced air pressure: 18.03.2019 17:00:00 - 24.03.2019 17:00:00 (CET)Hoyerswerda, Germany (10495): visibility: 18.03.2019 17:00:00 - 24.03.2019 17:00:00 (CET)Hoyerswerda, Germany (10495): sunshine duration: 18.03.2019 17:00:00 - 24.03.2019 17:00:00 (CET)Hoyerswerda, Germany (10495): precipitation: 18.03.2019 17:00:00 - 24.03.2019 17:00:00 (CET)
Date & Time tt [°C] td [°C] tt 5cm [°C] tt -5cm [°C] tt -20cm [°C] tt -100cm [°C] ff [km/h] ff [kn] fx [km/h] fx [kn] dd ppp [hPa] vv [km] sd [min] rr [mm]
24.03.2019 17:00:00 10,5 2,4 12,1 11,5 10,5 7,1 8 4 13 7 W 1021,8 43 3 0,0
24.03.2019 16:00:00 10,2 1,9 10,4 11,3 10,6 7,1 7 4 14 8 WNW 1022,2 42 0 0,0
24.03.2019 15:00:00 10,2 2,4 10,7 12,2 10,6 7,1 9 5 16 8 WNW 1022,9 41 0 0,0
24.03.2019 14:00:00 10,4 1,6 12,3 12,9 10,5 7,1 6 4 14 7 NNW 1023,4 42 0 0,0
24.03.2019 13:00:00 10,4 1,2 12,6 13,6 10,3 7,1 6 3 11 6 NNW 1024,4 37 0 0,0
24.03.2019 12:00:00 10,7 2,8 13,0 14,3 9,9 7,1 3 2 15 8 WNW 1025,2 28 2 0,0
24.03.2019 11:00:00 10,2 2,3 15,3 14,0 9,4 7,0 7 4 14 7 ENE 1025,9 28 27 0,0
24.03.2019 10:00:00 9,8 3,1 12,2 12,5 9,0 7,0 3 2 13 7 SE 1026,5 26 20 0,0
24.03.2019 09:00:00 8,8 3,1 11,5 10,4 8,9 7,0 6 4 16 9 ESE 1027,1 24 50 0,0
24.03.2019 08:00:00 8,2 3,2 10,5 8,3 8,9 7,0 8 4 13 7 NE 1027,5 28 14 0,0
24.03.2019 07:00:00 7,4 3,6 7,0 7,7 9,1 6,9 4 2 8 4 ENE 1027,6 28 0 0,0
24.03.2019 06:00:00 7,3 4,1 6,4 7,8 9,2 6,9 2 1 7 4 NE 1027,7 21 0 0,0
24.03.2019 05:00:00 7,7 4,7 6,9 8,0 9,4 6,9 4 2 10 6 NE 1027,9 13 0 0,0
24.03.2019 04:00:00 7,8 6,0 7,1 8,2 9,5 6,9 5 3 8 5 NNE 1028,2 7 0 0,0
24.03.2019 03:00:00 7,7 6,3 7,1 8,3 9,7 6,9 5 3 8 5 NNW 1028,6 6 0 0,0
24.03.2019 02:00:00 7,7 6,4 7,1 8,4 9,9 6,8 5 3 8 4 NNW 1028,5 6 0 0,0
24.03.2019 01:00:00 7,5 6,3 7,0 8,3 10,1 6,8 6 3 10 5 WNW 1028,8 5 0 0,0
24.03.2019 00:00:00 7,9 6,0 6,6 8,4 10,4 6,8 4 2 10 5 W 1028,8 6 0 0,0
23.03.2019 23:00:00 7,9 6,2 7,0 8,2 10,8 6,8 8 4 11 6 W 1029,0 6 0 0,0
23.03.2019 22:00:00 7,1 5,4 2,1 8,9 11,3 6,8 6 3 11 6 W 1029,1 7 0 0,0
23.03.2019 21:00:00 8,3 5,9 5,5 9,6 11,8 6,8 9 5 22 12 NW 1028,6 7 0 0,0
23.03.2019 20:00:00 9,8 6,3 8,0 10,8 12,2 6,7 17 9 31 17 NW 1027,8 7 0 0,0
23.03.2019 19:00:00 12,0 4,8 10,1 12,4 12,5 6,7 21 11 31 17 NNW 1026,6 11 0 0,0
23.03.2019 18:00:00 14,9 7,5 13,2 14,7 12,7 6,7 23 12 37 20 NNW 1025,6 9 36 0,0
23.03.2019 17:00:00 18,4 4,8 19,0 16,6 12,6 6,7 18 10 29 16 NW 1024,6 26 60 0,0
23.03.2019 16:00:00 19,5 5,7 22,0 18,5 12,3 6,7 21 11 32 17 NW 1024,3 21 60 0,0
23.03.2019 15:00:00 20,0 6,8 24,1 19,5 11,8 6,7 16 9 31 17 NW 1024,4 30 60 0,0
23.03.2019 14:00:00 19,6 6,6 23,9 20,0 11,1 6,7 19 10 32 17 WNW 1024,8 37 60 0,0
23.03.2019 13:00:00 19,3 7,7 24,6 20,2 10,2 6,7 18 10 27 15 WNW 1025,2 25 60 0,0
23.03.2019 12:00:00 18,9 8,3 23,4 19,5 9,1 6,6 16 9 27 15 WSW 1025,3 25 60 0,0
23.03.2019 11:00:00 18,0 7,5 22,4 17,3 8,1 6,6 13 7 19 11 W 1025,5 40 60 0,0
23.03.2019 10:00:00 16,6 7,2 19,7 14,1 7,4 6,6 11 6 21 11 WSW 1025,8 37 60 0,0
23.03.2019 09:00:00 12,6 7,4 14,6 10,2 7,0 6,6 6 3 11 6 S 1026,2 12 60 0,0
23.03.2019 08:00:00 8,2 6,6 8,8 6,2 6,9 6,6 3 2 5 3 SSE 1026,6 6 60 0,0
23.03.2019 07:00:00 2,3 2,0 1,8 3,6 7,2 6,5 2 1 5 3 N 1027,1 2,4 29 0,0
23.03.2019 06:00:00 3,3 3,3 -1,3 3,6 7,6 6,5 4 2 7 4 E 1026,9 1,4 0 0,0
23.03.2019 05:00:00 3,7 3,7 -0,6 4,1 7,9 6,5 4 2 9 5 ESE 1027,0 0,9 0 0,0
23.03.2019 04:00:00 5,0 5,0 2,0 4,6 8,3 6,5 9 5 11 6 SE 1027,2 1,2 0 0,0
23.03.2019 03:00:00 4,7 4,7 1,5 5,2 8,7 6,4 7 4 10 5 SE 1027,6 1,0 0 0,0
23.03.2019 02:00:00 5,5 5,5 3,0 5,6 9,1 6,4 7 4 10 6 SE 1028,0 1,3 0 0,0
23.03.2019 01:00:00 6,1 6,1 1,3 6,2 9,5 6,4 6 4 9 5 ESE 1028,6 1,3 0 0,0
23.03.2019 00:00:00 6,8 6,8 1,9 7,1 9,9 6,4 5 3 11 6 ESE 1029,1 2,2 0 0,0
22.03.2019 23:00:00 7,6 7,1 2,4 8,0 10,3 6,4 5 3 12 6 E 1029,4 3,4 0 0,0
22.03.2019 22:00:00 8,7 7,5 6,4 9,0 10,8 6,4 8 4 16 9 ESE 1029,6 5 0 0,0
22.03.2019 21:00:00 9,7 7,9 7,8 10,0 11,2 6,4 10 6 24 13 ESE 1030,2 7 0 0,0
22.03.2019 20:00:00 11,1 8,2 9,2 11,0 11,6 6,4 11 6 19 10 E 1030,3 9 0 0,0
22.03.2019 19:00:00 12,6 8,8 9,5 12,6 11,9 6,4 8 4 11 6 NE 1030,0 10 3 0,0
22.03.2019 18:00:00 14,9 8,9 12,7 14,7 11,9 6,3 6 4 17 9 ENE 1029,7 14 60 0,0
22.03.2019 17:00:00 16,4 9,3 17,3 16,9 11,8 6,3 9 5 14 8 NE 1029,8 13 60 0,0
22.03.2019 16:00:00 16,7 8,0 19,7 18,7 11,3 6,3 9 5 15 8 E 1030,2 22 60 0,0
22.03.2019 15:00:00 17,2 8,8 21,4 19,7 10,6 6,3 3 2 20 11 SSE 1030,8 15 60 0,0
22.03.2019 14:00:00 16,1 8,2 22,8 20,0 9,7 6,3 6 3 17 9 NW 1031,6 12 60 0,0
22.03.2019 13:00:00 15,2 8,8 21,2 19,6 8,6 6,3 5 3 12 7 NW 1032,5 8 60 0,0
22.03.2019 12:00:00 13,8 8,1 19,9 17,6 7,6 6,3 6 3 13 7 SW 1033,0 9 60 0,0
22.03.2019 11:00:00 12,0 7,3 17,4 14,2 6,7 6,3 5 3 15 8 E 1033,8 7 60 0,0
22.03.2019 10:00:00 10,7 7,3 16,0 11,1 6,1 6,2 6 3 14 8 NE 1034,5 7 60 0,0
22.03.2019 09:00:00 7,9 6,0 11,9 7,7 5,8 6,2 4 2 6 4 NNW 1034,3 5 45 0,0
22.03.2019 08:00:00 5,2 4,6 5,7 4,5 5,8 6,2 0 0 5 3 N 1034,1 4,1 17 0,0
22.03.2019 07:00:00 1,7 1,6 0,5 2,4 6,1 6,2 2 1 5 3 ENE 1034,3 3,4 0 0,0
22.03.2019 06:00:00 0,9 0,9 -2,3 2,4 6,4 6,2 2 1 3 2 NNW 1033,6 0,3 0 0,0
22.03.2019 05:00:00 2,5 2,4 -1,7 2,8 6,7 6,1 4 2 7 4 S 1033,2 2,4 0 0,0
22.03.2019 04:00:00 2,8 2,8 -1,2 3,2 7,0 6,1 4 2 9 5 S 1033,1 0,6 0 0,0
22.03.2019 03:00:00 2,7 2,7 -1,3 3,7 7,4 6,1 3 2 4 2 S 1033,5 1,9 0 0,0
22.03.2019 02:00:00 2,4 2,3 -0,8 4,2 7,8 6,1 3 1 4 2 S 1033,6 0,8 0 0,0
22.03.2019 01:00:00 4,0 4,0 -0,1 4,7 8,2 6,1 3 2 4 2 SE 1033,6 3,9 0 0,0
22.03.2019 00:00:00 4,7 4,6 0,3 5,3 8,6 6,1 3 1 4 2 S 1033,6 4,8 0 0,0
21.03.2019 23:00:00 5,2 5,2 0,7 6,0 9,1 6,0 0 0 4 2 N 1033,6 5 0 0,0
21.03.2019 22:00:00 5,8 5,7 1,2 6,9 9,6 6,0 0 0 3 2 N 1033,3 5 0 0,0
21.03.2019 21:00:00 7,2 6,2 1,7 8,0 10,0 6,0 0 0 7 4 N 1033,1 13 0 0,0
21.03.2019 20:00:00 8,5 6,3 2,9 9,4 10,5 6,0 5 3 7 4 SSW 1033,1 14 0 0,0
21.03.2019 19:00:00 9,5 7,0 4,7 11,2 10,7 6,0 5 3 10 6 WSW 1032,8 15 0 0,0
21.03.2019 18:00:00 13,1 7,7 10,3 13,3 10,8 6,0 8 4 17 9 W 1032,4 21 60 0,0
21.03.2019 17:00:00 14,9 7,0 16,2 15,3 10,7 6,0 11 6 19 11 WNW 1032,2 29 60 0,0
21.03.2019 16:00:00 15,5 7,6 18,7 16,8 10,2 6,0 12 6 23 13 WNW 1032,4 27 60 0,0
21.03.2019 15:00:00 15,1 7,0 19,1 17,7 9,6 6,0 14 8 24 13 WSW 1032,9 22 60 0,0
21.03.2019 14:00:00 14,8 6,9 20,1 17,4 8,9 6,0 14 7 23 12 W 1033,5 22 42 0,0
21.03.2019 13:00:00 14,2 6,8 18,9 17,4 8,0 6,0 16 9 27 15 W 1034,2 22 49 0,0
21.03.2019 12:00:00 13,8 6,9 19,3 15,7 7,1 6,0 13 7 23 12 W 1034,9 20 52 0,0
21.03.2019 11:00:00 12,6 6,3 16,4 13,1 6,5 6,0 9 5 21 11 W 1035,3 22 57 0,0
21.03.2019 10:00:00 10,3 3,7 12,6 9,5 6,1 6,0 11 6 21 11 WSW 1035,6 19 19 0,0
21.03.2019 09:00:00 8,9 2,8 9,6 7,1 6,0 6,0 12 6 17 9 W 1035,4 22 0 0,0
21.03.2019 08:00:00 8,0 1,0 7,9 6,0 5,9 5,9 8 4 13 7 WSW 1035,2 31 0 0,0
21.03.2019 07:00:00 7,2 1,0 6,5 5,5 6,0 5,9 9 5 13 7 WSW 1034,9 24 0 0,0
21.03.2019 06:00:00 7,0 1,5 5,7 5,4 6,0 5,9 4 2 9 5 SW 1034,3 26 0 0,0
21.03.2019 05:00:00 6,9 0,5 5,8 5,3 6,1 5,9 6 3 14 8 WSW 1034,4 30 0 0,0
21.03.2019 04:00:00 7,0 0,3 6,1 5,3 6,1 5,9 10 5 16 9 W 1034,4 30 0 0,0
21.03.2019 03:00:00 7,4 0,4 6,4 5,4 6,2 5,9 12 7 16 9 W 1034,3 30 0 0,0
21.03.2019 02:00:00 7,4 0,8 6,1 5,4 6,2 5,9 7 4 11 6 W 1034,4 29 0 0,0
21.03.2019 01:00:00 6,1 1,1 5,4 5,4 6,3 5,9 5 3 7 4 SSW 1034,9 33 0 0,0
21.03.2019 00:00:00 6,1 0,5 5,2 5,2 6,4 5,9 4 2 9 5 S 1034,9 33 0 0,0
20.03.2019 23:00:00 6,3 -0,3 5,0 4,9 6,7 5,9 4 2 8 5 S 1034,4 49 0 0,0
20.03.2019 22:00:00 5,6 -0,7 2,2 4,5 7,0 5,9 6 3 11 6 SSW 1034,3 42 0 0,0
20.03.2019 21:00:00 5,1 -0,8 0,4 4,7 7,4 5,9 6 3 9 5 SSW 1034,4 45 0 0,0
20.03.2019 20:00:00 5,2 -0,6 -1,0 5,8 7,8 5,9 5 3 11 6 SW 1034,3 47 0 0,0
20.03.2019 19:00:00 8,1 -0,6 2,7 7,3 8,1 5,9 9 5 15 8 SW 1033,7 63 8 0,0
20.03.2019 18:00:00 9,7 -0,7 7,2 9,3 8,2 6,0 11 6 23 13 WSW 1033,1 65 60 0,0
20.03.2019 17:00:00 10,9 -0,2 11,3 11,3 8,1 6,0 17 9 26 14 WSW 1033,3 39 60 0,0
20.03.2019 16:00:00 11,2 -1,2 13,2 13,0 7,7 6,0 19 11 27 15 WSW 1033,1 33 60 0,0
20.03.2019 15:00:00 11,1 -1,6 15,1 14,2 7,1 6,0 15 8 26 14 W 1033,5 29 60 0,0
20.03.2019 14:00:00 11,3 0,5 15,6 14,3 6,3 6,0 14 7 26 14 W 1033,7 55 60 0,0
20.03.2019 13:00:00 10,3 -0,3 14,4 13,6 5,4 6,0 17 9 28 15 WSW 1034,2 27 60 0,0
20.03.2019 12:00:00 9,4 -0,8 13,8 12,3 4,5 6,0 19 10 31 17 SW 1034,6 25 56 0,0
20.03.2019 11:00:00 8,8 0,6 13,3 9,9 3,7 6,0 16 9 26 14 WSW 1034,6 41 59 0,0
20.03.2019 10:00:00 7,0 0,4 10,9 6,5 3,2 6,0 15 8 21 11 W 1034,5 30 60 0,0
20.03.2019 09:00:00 5,2 0,5 7,7 1,1 3,1 6,0 11 6 16 8 W 1034,4 30 60 0,0
20.03.2019 08:00:00 3,0 -0,2 3,7 0,4 3,3 6,0 0 0 7 4 N 1033,9 25 60 0,0
20.03.2019 07:00:00 -0,6 -1,1 -2,3 0,4 3,4 6,0 5 3 9 5 S 1033,5 15 24 0,0
20.03.2019 06:00:00 -2,2 -2,4 -6,8 0,5 3,6 6,0 3 2 6 3 SW 1033,2 10 0 0,0
20.03.2019 05:00:00 -1,7 -1,9 -6,6 0,6 3,8 6,0 4 2 8 5 WSW 1032,8 11 0 0,0
20.03.2019 04:00:00 -1,2 -1,3 -6,0 0,7 4,0 6,0 4 2 8 4 WSW 1032,4 17 0 0,0
20.03.2019 03:00:00 -0,5 -0,8 -6,3 0,9 4,3 6,0 5 3 7 4 WSW 1032,1 21 0 0,0
20.03.2019 02:00:00 0,3 -0,3 -4,5 1,1 4,5 6,0 3 1 5 3 W 1032,0 29 0 0,0
20.03.2019 01:00:00 0,7 -0,3 -4,5 1,3 4,8 6,0 4 2 9 5 W 1031,8 29 0 0,0
20.03.2019 00:00:00 1,5 0,0 -2,7 2,1 5,0 6,0 7 4 10 6 W 1031,3 35 0 0,0
19.03.2019 23:00:00 3,3 0,8 1,0 2,9 5,2 6,0 8 4 12 6 W 1031,0 44 0 0,0
19.03.2019 22:00:00 3,5 0,9 2,0 2,9 5,5 6,0 8 4 10 6 WSW 1030,5 46 0 0,0
19.03.2019 21:00:00 3,0 0,5 -1,1 3,0 5,8 6,1 6 3 10 6 WSW 1029,9 46 0 0,0
19.03.2019 20:00:00 3,8 0,8 0,2 3,7 6,1 6,1 7 4 18 10 WSW 1029,5 28 0 0,0
19.03.2019 19:00:00 4,9 0,9 1,7 5,0 6,3 6,1 8 5 21 12 W 1028,7 47 0 0,0
19.03.2019 18:00:00 6,1 0,4 5,5 6,0 6,4 6,1 15 8 33 18 W 1027,8 70 9 0,0
19.03.2019 17:00:00 7,0 -1,7 6,4 7,1 6,4 6,1 16 8 23 12 W 1027,0 70 14 0,0
19.03.2019 16:00:00 7,9 -0,3 10,6 8,0 6,2 6,1 12 6 29 16 WNW 1026,5 65 6 0,0
19.03.2019 15:00:00 7,1 -2,1 7,3 9,7 5,8 6,1 24 13 34 18 W 1026,6 58 32 0,0
19.03.2019 14:00:00 7,5 -1,0 10,7 8,8 5,4 6,1 16 9 33 18 WNW 1026,3 55 18 0,0
19.03.2019 13:00:00 7,0 -2,6 8,9 7,8 5,1 6,1 21 11 31 17 WNW 1026,3 32 8 0,0
19.03.2019 12:00:00 5,8 -1,6 6,7 6,6 4,8 6,1 18 10 39 21 WNW 1026,3 49 7 0,0
19.03.2019 11:00:00 6,0 0,8 8,7 6,3 4,4 6,1 19 10 37 20 W 1025,9 41 14 0,0
19.03.2019 10:00:00 5,2 1,4 7,6 5,6 4,1 6,1 21 11 32 17 W 1025,6 29 23 0,0
19.03.2019 09:00:00 4,1 0,7 5,0 4,1 3,8 6,1 19 10 31 17 W 1025,1 37 12 0,0
19.03.2019 08:00:00 3,6 0,4 3,8 2,5 3,8 6,1 20 11 29 16 W 1024,5 48 6 0,0
19.03.2019 07:00:00 2,4 -0,1 1,8 1,3 3,9 6,1 10 6 16 9 WSW 1024,0 35 0 0,0
19.03.2019 06:00:00 1,9 -0,4 0,1 0,8 4,1 6,1 11 6 22 12 WSW 1023,4 43 0 0,0
19.03.2019 05:00:00 2,3 -0,6 0,6 1,4 4,2 6,1 14 8 31 17 W 1022,8 48 0 0,0
19.03.2019 04:00:00 3,4 -0,4 2,0 1,6 4,3 6,1 20 11 34 18 W 1022,2 50 0 0,0
19.03.2019 03:00:00 2,4 -0,6 0,9 1,1 4,5 6,1 11 6 23 12 WSW 1021,7 59 0 0,0
19.03.2019 02:00:00 3,0 -0,8 1,4 1,4 4,8 6,1 16 8 27 15 WSW 1021,4 63 0 0,0
19.03.2019 01:00:00 3,1 -0,5 0,9 1,5 5,0 6,1 16 9 27 14 WSW 1021,0 66 0 0,0
19.03.2019 00:00:00 3,4 -0,4 1,2 2,0 5,3 6,1 15 8 26 14 WSW 1020,4 70 0 0,0
18.03.2019 23:00:00 4,1 -0,2 2,2 2,5 5,5 6,1 17 9 29 16 W 1019,8 70 0 0,0
18.03.2019 22:00:00 4,9 0,0 2,9 3,0 5,8 6,1 21 12 34 18 W 1019,2 67 0 0,0
18.03.2019 21:00:00 4,9 0,5 3,2 3,2 6,1 6,1 18 10 26 14 WSW 1018,5 63 0 0,0
18.03.2019 20:00:00 4,8 0,1 2,6 3,7 6,4 6,1 15 8 28 15 WSW 1017,7 70 0 0,0
18.03.2019 19:00:00 5,5 0,8 3,4 4,6 6,6 6,1 19 10 29 15 WSW 1016,6 70 1 0,0
18.03.2019 18:00:00 6,3 1,2 4,8 5,9 6,8 6,1 22 12 36 19 WSW 1015,8 55 17 0,0
18.03.2019 17:00:00 7,4 1,8 7,3 7,1 6,8 6,1 19 11 34 18 WSW 1014,7 47 28 0,1

tt = temperature
td = dewpoint
tt 5cm = temperature 5cm
tt -5cm = temperature -5cm
tt -20cm = temperature -20cm
tt -100cm = temperature -100cm
ff = wind speed
fx = gusts
dd = wind direction
ppp = reduced air pressure
vv = visibility
sd = sunshine duration
rr = precipitation

Next stations